This is the latest recevied weather packets stored in our database for station/object KR4ELZ. If no packets are shown the sender has not sent any weather packets the latest 10 day(s).
| Time | Temp. | Humidity | Pressure | Rain* | Wind** | Luminosity | Snow |
|---|---|---|---|---|---|---|---|
| 1777490384 | 21.11° C | 81% | 1013.8 hPa | 0 mm | - | 223 W/m² | - |
| 1777490082 | 20.56° C | 81% | 1013.8 hPa | 0 mm | - | 202 W/m² | - |
| 1777489779 | 20.56° C | 81% | 1013.9 hPa | 0 mm | - | 92 W/m² | - |
| 1777489476 | 21.67° C | 80% | 1014 hPa | 0 mm | - | 88 W/m² | - |
| 1777489173 | 21.67° C | 79% | 1013.8 hPa | 0 mm | - | 140 W/m² | - |
| 1777488870 | 22.78° C | 78% | 1014.1 hPa | 0 mm | - | 246 W/m² | - |
| 1777488567 | 22.22° C | 79% | 1014 hPa | 0 mm | - | 194 W/m² | - |
| 1777488265 | 22.22° C | 78% | 1013.9 hPa | 0 mm | - | 202 W/m² | - |
| 1777487963 | 21.67° C | 78% | 1014 hPa | 0 mm | - | 173 W/m² | - |
| 1777487660 | 20.56° C | 83% | 1014.4 hPa | 0 mm | - | 636 W/m² | - |
| 1777487357 | 20.56° C | 84% | 1014.4 hPa | 0 mm | - | 206 W/m² | - |
| 1777487055 | 20.56° C | 83% | 1014.3 hPa | 0 mm | - | 97 W/m² | - |
| 1777486750 | 21.11° C | 82% | 1014.3 hPa | 0 mm | - | 118 W/m² | - |
| 1777486449 | 22.22° C | 79% | 1014.4 hPa | 0 mm | - | 127 W/m² | - |
| 1777486145 | 21.67° C | 79% | 1014.4 hPa | 0 mm | - | 732 W/m² | - |
| 1777485842 | 21.67° C | 81% | 1014.5 hPa | 0 mm | - | 761 W/m² | - |
| 1777485538 | 21.67° C | 81% | 1014.5 hPa | 0 mm | - | 390 W/m² | - |
| 1777485234 | 21.11° C | 83% | 1014.6 hPa | 0 mm | - | 487 W/m² | - |
| 1777484931 | 21.67° C | 82% | 1014.5 hPa | 0 mm | - | 542 W/m² | - |
| 1777484628 | 21.67° C | 81% | 1014.5 hPa | 0 mm | - | 252 W/m² | - |
| 1777484324 | 21.67° C | 81% | 1014.2 hPa | 0 mm | - | 609 W/m² | - |
| 1777484020 | 21.11° C | 81% | 1014.5 hPa | 0 mm | - | 239 W/m² | - |
| 1777483717 | 21.67° C | 80% | 1014.2 hPa | 0 mm | - | 98 W/m² | - |
| 1777483413 | 22.22° C | 78% | 1014.2 hPa | 0 mm | - | 193 W/m² | - |
| 1777483108 | 22.22° C | 79% | 1014.5 hPa | 0 mm | - | 715 W/m² | - |
* Rain latest hour (hover to see other rain measurements)
** Current wind speed in m/s (hover to see current wind gust speed)